Location: Bonny Doon Airfield
(37.0704°N, 122.1252°W)
Time: 22:16:10
(UTC-08:00)

Vanguard 3 - Visible Passes

Search period start: 16 December 2017 00:00
Search period end: 26 December 2017 00:00
Orbit: 509 x 3263 km, 33.3° (Epoch: 16 December)

Date Brightness Start Highest point End Pass type
(mag) Time Alt. Az. Time Alt. Az. Time Alt. Az.
20 Dec 11.5 06:28:04 10° S 06:32:10 12° SSE 06:35:41 10° SE visible
22 Dec 11.3 06:08:11 10° S 06:16:20 17° SSE 06:22:34 10° ESE visible
23 Dec 11.7 04:58:02 10° SSE 05:01:10 11° SSE 05:04:03 10° SE visible
24 Dec 11.1 05:49:23 10° SSW 06:00:23 23° SSE 06:08:19 10° ESE visible
25 Dec 11.5 04:36:44 10° S 04:45:05 15° SE 04:51:59 10° ESE visible
25 Dec 10.5 06:46:04 10° SW 06:59:27 36° SSE 07:07:50 10° E visible
